This is the latest recevied weather packets stored in our database for station/object KD9IXX-13. If no packets are shown the sender has not sent any weather packets the latest 1 day(s).
| Time | Temp. | Humidity | Pressure | Rain* | Wind** | Luminosity | Snow |
|---|---|---|---|---|---|---|---|
| 1777999502 | 13.33° C | 54% | 1010.9 hPa | 0 mm | 1.79 m/s, 278° | 584 W/m² | - |
| 1777999202 | 13.89° C | 51% | 1010.7 hPa | 0 mm | 1.79 m/s, 289° | 582 W/m² | - |
| 1777998902 | 13.33° C | 53% | 1010.9 hPa | 0 mm | 1.79 m/s, 271° | 661 W/m² | - |
| 1777998602 | 13.33° C | 52% | 1010.8 hPa | 0 mm | 1.79 m/s, 225° | 576 W/m² | - |
| 1777998302 | 13.33° C | 53% | 1010.7 hPa | 0 mm | 1.34 m/s, 310° | 780 W/m² | - |
| 1777998002 | 13.33° C | 55% | 1010.4 hPa | 0 mm | 1.79 m/s, 312° | 737 W/m² | - |
| 1777997702 | 12.78° C | 58% | 1010.7 hPa | 0 mm | 0.45 m/s, 285° | 696 W/m² | - |
| 1777997402 | 12.78° C | 63% | 1010.5 hPa | 0 mm | 1.34 m/s, 305° | 423 W/m² | - |
| 1777997102 | 12.22° C | 62% | 1010.5 hPa | 0 mm | 1.34 m/s, 313° | 395 W/m² | - |
| 1777996801 | 12.22° C | 67% | 1010.8 hPa | 0 mm | 0.45 m/s, 285° | 671 W/m² | - |
| 1777996502 | 12.22° C | 64% | 1010.6 hPa | 0 mm | 0.45 m/s, 313° | 442 W/m² | - |
| 1777996202 | 11.11° C | 66% | 1010.9 hPa | 0 mm | 0.89 m/s, 292° | 760 W/m² | - |
| 1777995902 | 11.67° C | 66% | 1010.7 hPa | 0 mm | 1.34 m/s, 242° | 789 W/m² | - |
| 1777995602 | 11.67° C | 65% | 1010.5 hPa | 0 mm | 1.79 m/s, 322° | 744 W/m² | - |
| 1777995302 | 11.67° C | 69% | 1010.5 hPa | 0 mm | 1.34 m/s, 317° | 329 W/m² | - |
| 1777995001 | 11.11° C | 68% | 1010.7 hPa | 0 mm | 1.34 m/s, 309° | 757 W/m² | - |
| 1777994702 | 10.56° C | 74% | 1010.5 hPa | 0 mm | 0.45 m/s, 290° | 756 W/m² | - |
| 1777994402 | 11.11° C | 76% | 1010.5 hPa | 0 mm | 0.89 m/s, 290° | 786 W/m² | - |
| 1777994102 | 10.56° C | 81% | 1010.6 hPa | 0 mm | 0.89 m/s, 296° | 724 W/m² | - |
| 1777993802 | 10° C | 82% | 1010.5 hPa | 0 mm | 0.89 m/s, 301° | 690 W/m² | - |
| 1777993502 | 10° C | 85% | 1010.6 hPa | 0 mm | 0.89 m/s, 296° | 893 W/m² | - |
| 1777993201 | 9.44° C | 85% | 1010.8 hPa | 0 mm | 0.89 m/s, 270° | 760 W/m² | - |
| 1777992902 | 8.89° C | 88% | 1010.9 hPa | 0 mm | 0.89 m/s, 262° | 803 W/m² | - |
| 1777992602 | 8.89° C | 92% | 1010.9 hPa | 0 mm | 0 m/s | 773 W/m² | - |
| 1777992302 | 7.78° C | 93% | 1010.8 hPa | 0 mm | 0.89 m/s, 313° | 403 W/m² | - |
* Rain latest hour (hover to see other rain measurements)
** Current wind speed in m/s (hover to see current wind gust speed)